[[{"header":{"parameterUnit":"m.s-1","parameterCategory":1,"la1":30.2992,"la2":30.254,"lo1":-89.0895,"lo2":-89.0443,"dy":0.0025,"dx":0.0025,"nx":19,"ny":19,"refTime":"2026-03-20T21:00:00:Z","depth":0,"parameterNumber":2,"parameterNumberName":"U-component_of_WINDS"},"data":[0,0,0,4.4421,4.4424,4.4596,4.4596,4.4825,4.4827,0,0,0,0,0,0,0,0,0,0,0,4.4376,4.4378,4.442,4.4425,4.4596,4.4596,4.4824,4.4827,0,0,0,0,0,0,0,0,0,0,0,4.4375,4.4377,4.4379,4.4425,4.4596,4.4596,4.4824,4.4691,0,0,0,0,0,0,0,0,0,0,4.4523,4.4488,4.4377,4.4379,4.4426,4.4595,4.4596,4.4685,4.47,4.4751,0,4.4799,0,4.4817,4.4843,4.4844,0,0,0,4.442,4.4476,4.4516,4.438,4.4428,4.4595,4.4517,4.4693,4.471,4.4771,4.4802,4.481,4.482,4.4844,4.4846,4.5157,4.5159,0,0,4.4411,4.441,4.4505,4.4528,4.4502,4.4512,4.4523,4.4703,4.4737,4.4803,4.4816,4.4824,4.4846,4.4848,4.5156,4.5158,0,0,0,4.4387,4.4404,4.444,4.4519,4.4549,4.4517,4.4529,4.4729,4.4741,4.4818,4.4827,4.4847,4.485,4.5154,4.5156,4.5237,0,0,0,4.4381,4.439,4.4436,4.4437,4.4546,4.4641,4.4552,4.4728,4.4749,4.4826,4.4847,4.4853,4.5152,4.5155,4.5231,4.5275,0,0,0,4.4363,4.4387,4.4414,4.4437,4.451,4.4638,4.466,4.4733,4.4754,4.4844,4.4853,4.5151,4.5155,4.5225,4.5266,4.5356,0,0,0,4.4343,4.4484,4.4415,4.4576,4.4509,4.4687,4.4659,4.4792,4.4878,4.4849,4.5152,4.5156,4.5224,4.5261,4.535,4.543,4.5464,0,0,4.4521,4.4506,4.46,4.4544,4.4733,4.4661,4.4862,4.4943,4.4953,4.5088,4.5096,4.5233,4.5265,4.5354,4.5655,4.5681,0,0,0,4.4656,4.4724,4.4775,4.4857,4.4921,4.4979,4.5028,4.5058,4.5173,4.5022,4.529,4.5309,4.5362,4.54,4.5423,4.5467,4.5174,4.5174,4.5173,4.4907,4.491,4.5067,4.5091,4.517,4.5219,4.5283,4.5331,4.5313,4.5376,4.5416,4.5598,4.5643,4.566,4.5706,4.546,4.546,4.546,4.5461,4.5167,4.5263,4.5233,4.5374,4.5377,4.5495,4.5547,4.5529,4.564,4.5568,4.5615,4.5535,4.5689,4.573,4.5467,4.5466,4.5465,4.5464,4.5464,4.533,4.5377,4.541,4.5527,4.5617,4.5636,4.5743,4.5742,4.5742,4.5788,4.5829,4.5828,4.5825,4.5807,4.5808,4.5809,4.5809,4.581,4.581,4.5487,4.5521,4.5611,4.569,4.5741,4.5809,4.5858,4.5908,4.5964,4.5954,4.5955,4.5929,4.5704,4.5647,4.582,4.5818,4.5817,4.5816,4.5815,4.5748,4.5688,4.5827,4.5879,4.597,4.6058,4.6055,4.6157,4.6199,4.6251,4.6216,4.605,4.6034,4.6016,4.5969,4.6215,4.6215,4.6215,4.6215,4.5885,4.5877,4.6018,4.6099,4.618,4.619,4.6346,4.6385,4.6416,4.6441,4.6406,4.6343,4.6324,4.632,4.6295,4.6251,4.6563,4.6564,4.6564,4.6045,4.6044,4.6177,4.6206,4.6277,4.6337,4.6483,4.6577,4.66,4.6578,4.6461,4.6446,4.6345,4.6312,4.6287,4.6249,4.6168,0,0]},{"header":{"parameterUnit":"m.s-1","parameterCategory":1,"la1":30.2992,"la2":30.254,"lo1":-89.0895,"lo2":-89.0443,"dy":0.0025,"dx":0.0025,"nx":19,"ny":19,"refTime":"2026-03-20T21:00:00:Z","depth":0,"parameterNumber":3,"parameterNumberName":"V-component_of_WINDS"},"data":[0,0,0,2.1812,2.1813,2.1845,2.1845,2.1891,2.1891,0,0,0,0,0,0,0,0,0,0,0,2.1806,2.1807,2.1812,2.1813,2.1845,2.1845,2.189,2.1891,0,0,0,0,0,0,0,0,0,0,0,2.1806,2.1807,2.1807,2.1813,2.1845,2.1845,2.189,2.1864,0,0,0,0,0,0,0,0,0,0,2.1832,2.1831,2.1806,2.1807,2.1813,2.1845,2.1845,2.1863,2.1866,2.1878,0,2.1891,0,2.1892,2.1894,2.1895,0,0,0,2.181,2.1829,2.1834,2.1807,2.1814,2.1845,2.183,2.1865,2.1868,2.1882,2.1892,2.1893,2.1893,2.1895,2.1895,2.1977,2.1978,0,0,2.1808,2.1814,2.1832,2.1836,2.1832,2.1829,2.1831,2.1867,2.1877,2.1892,2.1894,2.1893,2.1895,2.1895,2.1977,2.1977,0,0,0,2.1805,2.1813,2.1817,2.1834,2.184,2.183,2.1832,2.1875,2.1876,2.1895,2.1894,2.1895,2.1896,2.1976,2.1977,2.2009,0,0,0,2.1804,2.1811,2.1817,2.182,2.1839,2.1858,2.184,2.1874,2.1878,2.1894,2.1895,2.1897,2.1976,2.1977,2.2007,2.2023,0,0,0,2.1803,2.1811,2.1817,2.1821,2.1835,2.1857,2.186,2.1874,2.1877,2.1895,2.1897,2.1975,2.1977,2.2005,2.202,2.2047,0,0,0,2.1803,2.1844,2.1817,2.1863,2.1834,2.1877,2.186,2.1891,2.191,2.1896,2.1976,2.1977,2.2004,2.2018,2.2045,2.207,2.2082,0,0,2.1858,2.1851,2.1877,2.1854,2.1903,2.1872,2.1925,2.1936,2.1932,2.1962,2.1964,2.2007,2.202,2.2046,2.2142,2.2151,0,0,0,2.1897,2.1916,2.1927,2.1946,2.1956,2.1965,2.1968,2.1972,2.1997,2.1949,2.2024,2.2031,2.2046,2.2058,2.2066,2.2079,2.1983,2.1983,2.1982,2.1983,2.1976,2.2019,2.2015,2.2033,2.2035,2.2049,2.2054,2.2042,2.206,2.2069,2.2128,2.2142,2.2148,2.2161,2.2081,2.2081,2.2081,2.2082,2.2063,2.2089,2.2071,2.2106,2.2098,2.2127,2.213,2.212,2.2146,2.212,2.2133,2.2106,2.2158,2.2169,2.2084,2.2083,2.2083,2.2083,2.2083,2.2119,2.2131,2.2135,2.216,2.218,2.2175,2.22,2.2191,2.2183,2.2196,2.2205,2.2204,2.2203,2.2201,2.2201,2.2201,2.2201,2.2202,2.2202,2.2176,2.218,2.2203,2.2216,2.2227,2.2239,2.2241,2.225,2.2259,2.225,2.225,2.2236,2.2164,2.2146,2.2205,2.2204,2.2204,2.2204,2.2203,2.2261,2.224,2.2276,2.2286,2.2301,2.2321,2.2309,2.2329,2.2336,2.2349,2.2331,2.2279,2.2271,2.2265,2.225,2.2333,2.2333,2.2333,2.2333,2.2309,2.2304,2.2338,2.2355,2.237,2.2363,2.2402,2.2404,2.2402,2.2405,2.2392,2.2371,2.2365,2.2361,2.2353,2.2339,2.2442,2.2442,2.2442,2.236,2.2356,2.2392,2.239,2.2401,2.241,2.2446,2.2466,2.2459,2.2446,2.2408,2.2403,2.237,2.2359,2.2346,2.2334,2.2308,0,0]}]]